Location: Prescott
(34.5400°N, 112.4680°W)
Time: 15:57:37
(UTC-07:00)

Amateur Radio Satellites - All Passes

Search period start: 24 April 2017 15:27
Search period end: 25 April 2017 15:27
Location: Prescott, 34.5400°N, 112.4680°W

Satellite Date Start Highest point End Downlink Frequencies (MHz)
Time Altitude Azimuth
ISS 24 Apr 15:30:20 15:33:12 27° 36° (NE) 15:36:02 437.550
YUBILEINY 24 Apr 15:45:16 15:54:03 76° 82° (E) 16:02:51 435.215
SO-50 24 Apr 15:48:18 15:52:43 53° 58° (ENE) 15:57:07 436.795
BEESAT 24 Apr 16:03:19 16:07:45 40° 288° (WNW) 16:12:11 436.000
MOZHAYETS 4 24 Apr 16:18:01 16:22:32 56° 285° (WNW) 16:27:03
RS-15 24 Apr 16:39:20 16:51:33 69° 58° (ENE) 17:03:06 29.354- 29.394
ITUPSAT 1 24 Apr 16:43:29 16:46:28 17° 294° (WNW) 16:49:27 437.325
KKS-1 24 Apr 16:47:48 16:52:05 47° 100° (E) 16:56:20 437.445
XW-2C 24 Apr 16:51:39 16:52:24 11° 67° (ENE) 16:53:11 145.795 - 145.815
AO-7 24 Apr 16:57:13 17:02:47 20° 266° (W) 17:08:23 .
CUBESAT XI-V 24 Apr 17:02:23 17:07:06 69° 101° (E) 17:11:46 437.345
Tancredo 1 24 Apr 17:03:42 17:05:48 17° 231° (SW) 17:07:53 437.200
ISS 24 Apr 17:06:57 17:09:33 22° 230° (SW) 17:12:09 437.550
XW-2F 24 Apr 17:16:38 17:19:31 22° 71° (ENE) 17:22:25 145.980 - 146.000
STARS 24 Apr 17:26:14 17:30:31 53° 101° (E) 17:34:46 437.465
DOVE 4 24 Apr 17:27:45 17:32:59 64° 75° (ENE) 17:38:12 437.250
JUGNU 24 Apr 17:30:13 17:33:05 14° 168° (SSE) 17:35:58 437.505
SO-50 24 Apr 17:30:46 17:32:41 12° 252° (WSW) 17:34:34 436.795
NUDT-PHONESAT 24 Apr 17:34:58 17:38:10 30° 73° (ENE) 17:41:25 437.300
CUTE-I 24 Apr 17:37:52 17:42:58 47° 72° (ENE) 17:48:04 437.470
YUBILEINY 24 Apr 17:44:16 17:49:48 19° 279° (W) 17:55:22 435.215
XW-2D 24 Apr 18:03:45 18:07:28 75° 259° (W) 18:11:13 145.860 - 145.880
XW-2B 24 Apr 18:10:39 18:14:21 62° 260° (W) 18:18:04 145.730 - 145.750
CUTE 1.7 + AOD 2 24 Apr 18:15:11 18:17:35 15° 68° (ENE) 18:19:59 437.475
LilacSat-2 24 Apr 18:19:03 18:22:37 43° 261° (W) 18:26:14 437.200
XW-2A 24 Apr 18:22:30 18:24:31 15° 70° (ENE) 18:26:31 145.665 - 145.685
XW-2C 24 Apr 18:22:38 18:26:11 40° 261° (W) 18:29:43 145.795 - 145.815
KAITUO 1B 24 Apr 18:25:59 18:29:32 47° 261° (W) 18:33:06 145.475/437.950
KKS-1 24 Apr 18:26:01 18:28:11 14° 294° (WNW) 18:30:21 437.445
HO-68 24 Apr 18:31:53 18:38:31 43° 68° (ENE) 18:45:10 435.675
SEEDS 24 Apr 18:39:08 18:41:59 18° 69° (ENE) 18:44:50 437.485
CUBESAT XI-V 24 Apr 18:42:49 18:43:49 11° 296° (WNW) 18:44:50 437.345
XW-2F 24 Apr 18:50:55 18:53:34 19° 265° (W) 18:56:14 145.980 - 146.000
RS-15 24 Apr 18:53:14 19:02:56 30° 257° (WSW) 19:12:18 29.354- 29.394
CUBEBUG 2 24 Apr 18:55:54 18:59:12 21° 70° (ENE) 19:02:25 437.445
STARS 24 Apr 19:04:51 19:06:20 12° 295° (WNW) 19:07:50 437.465
DOVE 4 24 Apr 19:08:30 19:10:57 13° 269° (W) 19:13:25 437.250
NUDT-PHONESAT 24 Apr 19:10:25 19:12:08 13° 266° (W) 19:13:52 437.300
JUGNU 24 Apr 19:17:19 19:21:23 19° 178° (S) 19:25:27 437.505
M-CUBED/EXP-1 PRIME 24 Apr 19:17:28 19:20:44 22° 99° (E) 19:23:47 437.505
CUTE-I 24 Apr 19:19:36 19:23:11 18° 266° (W) 19:26:46 437.470
NO-84 24 Apr 19:40:05 19:43:52 86° 132° (SE) 19:47:19 435.350 FM
ZACube-1 24 Apr 19:47:53 19:51:24 26° 72° (ENE) 19:54:53 437.345
CUTE 1.7 + AOD 2 24 Apr 19:49:11 19:53:04 37° 262° (W) 19:56:59 437.475
AAUSAT CUBESAT 2 24 Apr 19:52:24 19:56:29 64° 76° (ENE) 20:00:36 437.432
XW-2A 24 Apr 19:54:26 19:57:04 21° 264° (W) 19:59:42 145.665 - 145.685
AO-73 24 Apr 19:55:59 19:59:37 29° 72° (ENE) 20:03:13 145.935
STRAND 1 24 Apr 19:57:06 20:02:14 86° 102° (ESE) 20:07:20 437.568
SEEDS 24 Apr 20:13:45 20:17:24 30° 263° (W) 20:21:06 437.485
Oscar 11 24 Apr 20:13:50 20:17:50 40° 73° (ENE) 20:21:51 .
HO-68 24 Apr 20:20:06 20:26:15 31° 263° (W) 20:32:28 435.675
UWE-3 24 Apr 20:22:44 20:27:01 61° 259° (W) 20:31:13 435.000/436.395/437.385
O/OREOS (USA 219) 24 Apr 20:22:59 20:27:26 48° 67° (ENE) 20:31:48 437.305
CUBEBUG 2 24 Apr 20:31:47 20:35:37 28° 263° (W) 20:39:21 437.445
SRMSAT 24 Apr 20:36:12 20:39:41 16° 170° (S) 20:43:10 437.500
OBJECT BX 24 Apr 20:38:18 20:39:54 13° 69° (ENE) 20:41:31 145.990 - 145.960
M-CUBED/EXP-1 PRIME 24 Apr 20:51:43 20:55:03 23° 296° (WNW) 20:58:11 437.505
DELFI C3 24 Apr 20:56:49 21:00:21 32° 73° (ENE) 21:03:57 145.870
JUGNU 24 Apr 21:05:59 21:09:42 17° 188° (S) 21:13:26 437.505
NO-84 24 Apr 21:20:57 21:21:43 11° 326° (NW) 21:22:29 435.350 FM
ZACube-1 24 Apr 21:24:28 21:27:37 20° 265° (W) 21:30:45 437.345
TIGRISAT 24 Apr 21:25:22 21:26:10 10° 92° (E) 21:26:58 435.000
AO-85 24 Apr 21:28:31 21:31:57 26° 55° (NE) 21:35:28 145.980
AO-73 24 Apr 21:32:56 21:35:50 18° 265° (W) 21:38:43 145.935
UNISAT 6 24 Apr 21:43:43 21:46:57 20° 96° (E) 21:50:11 437.425
LO-87 24 Apr 21:49:23 21:50:54 12° 68° (ENE) 21:52:25 145.935 - 145.965
PRISM 24 Apr 21:49:59 21:53:55 40° 99° (E) 21:57:48 437.425
Oscar 11 24 Apr 21:51:53 21:54:06 14° 267° (W) 21:56:19 .
O/OREOS (USA 219) 24 Apr 22:04:23 22:06:18 13° 262° (W) 22:08:14 437.305
OBJECT BX 24 Apr 22:10:00 22:13:16 31° 262° (W) 22:16:32 145.990 - 145.960
SRMSAT 24 Apr 22:24:01 22:28:10 19° 180° (S) 22:32:18 437.500
DELFI C3 24 Apr 22:32:59 22:35:12 14° 267° (W) 22:37:25 145.870
FO-29 24 Apr 22:53:10 22:58:24 84° 103° (ESE) 23:04:00 435.910
ESTCUBE 1 24 Apr 22:53:19 22:57:37 47° 74° (ENE) 23:01:57 437.505/2401.250
TIGRISAT 24 Apr 22:58:56 23:03:05 51° 285° (WNW) 23:07:17 435.000
SPROUT 24 Apr 23:00:34 23:02:28 13° 66° (ENE) 23:04:21 437.525
AO-85 24 Apr 23:09:03 23:12:10 21° 248° (WSW) 23:15:24 145.980
BEESAT 2 24 Apr 23:11:59 23:15:12 22° 53° (NE) 23:18:24 435.950
VELOX 1 24 Apr 23:16:30 23:19:59 23° 69° (ENE) 23:23:28 145.980
BEESAT 3 24 Apr 23:17:19 23:21:19 71° 60° (ENE) 23:25:16 437.485
EO-79 24 Apr 23:19:09 23:21:41 16° 94° (E) 23:24:13 145.935-145.965
UNISAT 6 24 Apr 23:19:59 23:23:36 27° 289° (WNW) 23:27:15 437.425
LO-87 24 Apr 23:20:41 23:23:59 33° 262° (W) 23:27:18 145.935 - 145.965
DUCHIFAT 1 24 Apr 23:23:56 23:26:10 14° 94° (E) 23:28:24 145.980
PRISM 24 Apr 23:26:45 23:28:48 14° 293° (WNW) 23:30:50 437.425
AIST 2D 24 Apr 23:43:33 23:47:03 71° 102° (ESE) 23:50:33 435.315
UKube-1 24 Apr 23:48:10 23:50:00 13° 66° (ENE) 23:51:50 .
POLYITAN 1 24 Apr 23:56:29 00:00:31 45° 99° (E) 00:04:33 437.675
QB50P2 25 Apr 00:02:53 00:07:03 61° 100° (E) 00:11:12 145.880/145.840
50 SAT 25 Apr 00:07:59 00:11:18 46° 75° (ENE) 00:14:40 437.505
SRMSAT 25 Apr 00:13:17 00:16:37 15° 191° (S) 00:19:58 437.500
DX 1 25 Apr 00:14:24 00:18:26 37° 72° (ENE) 00:22:30 434.975-435.025
NANOSAT C BR1 25 Apr 00:26:53 00:31:04 81° 285° (WNW) 00:35:14 145.865
ESTCUBE 1 25 Apr 00:32:33 00:34:37 13° 267° (W) 00:36:42 437.505/2401.250
BUGSAT 1 25 Apr 00:32:57 00:36:24 27° 97° (E) 00:39:51 437.445
SPROUT 25 Apr 00:33:49 00:37:55 46° 261° (W) 00:42:03 437.525
BEESAT 2 25 Apr 00:49:30 00:52:54 26° 248° (WSW) 00:56:16 435.950
VELOX 1 25 Apr 00:52:28 00:56:15 27° 263° (W) 01:00:03 145.980
EO-79 25 Apr 00:53:43 00:57:30 33° 288° (WNW) 01:01:16 145.935-145.965
DUCHIFAT 1 25 Apr 00:58:06 01:01:56 36° 287° (WNW) 01:05:45 145.980
UKube-1 25 Apr 01:21:22 01:25:33 49° 260° (W) 01:29:46 .
BEESAT 25 Apr 01:30:40 01:33:07 14° 65° (ENE) 01:35:34 436.000
POLYITAN 1 25 Apr 01:34:08 01:35:52 12° 293° (WNW) 01:37:36 437.675
Gurwin Techsat 1B 25 Apr 01:48:41 01:53:32 35° 98° (E) 01:58:20 435.225
DX 1 25 Apr 01:52:05 01:54:42 16° 266° (W) 01:57:21 434.975-435.025
Oscar 19 25 Apr 02:02:30 02:07:44 88° 101° (E) 02:12:56 437.125/150
ITUPSAT 1 25 Apr 02:07:49 02:12:06 34° 71° (ENE) 02:16:24 437.325
BUGSAT 1 25 Apr 02:08:50 02:11:32 18° 291° (WNW) 02:14:14 437.445
PCSat 25 Apr 02:25:36 02:31:00 88° 115° (ESE) 02:36:28 145.827
YUBILEINY 25 Apr 02:49:51 02:54:27 16° 79° (E) 02:59:04 435.215
BEESAT 25 Apr 03:05:47 03:10:24 52° 260° (W) 03:15:02 436.000
AO-7 25 Apr 03:07:30 03:14:34 30° 98° (E) 03:21:36 .
MOZHAYETS 4 25 Apr 03:15:55 03:20:28 89° 62° (ENE) 03:25:02
ITAMSAT 1 25 Apr 03:24:18 03:29:11 42° 99° (E) 03:34:04 435.822/435.867
Gurwin Techsat 1B 25 Apr 03:29:00 03:33:14 25° 292° (WNW) 03:37:27 435.225
KKS-1 25 Apr 03:42:30 03:46:20 28° 70° (ENE) 03:50:10 437.445
ITUPSAT 1 25 Apr 03:46:30 03:49:57 20° 265° (W) 03:53:26 437.325
NO-84 25 Apr 03:54:35 03:57:24 67° 230° (SW) 04:00:13 435.350 FM
CUBESAT XI-V 25 Apr 04:02:00 04:06:22 43° 73° (ENE) 04:10:47 437.345
PCSat 25 Apr 04:12:45 04:15:07 13° 313° (NW) 04:17:29 145.827
STARS 25 Apr 04:19:24 04:23:16 31° 71° (ENE) 04:27:09 437.465
YUBILEINY 25 Apr 04:41:19 04:50:01 85° 276° (W) 04:58:46 435.215
AO-7 25 Apr 04:59:32 05:07:30 53° 293° (WNW) 05:15:28 .
ITAMSAT 1 25 Apr 05:04:38 05:08:19 20° 294° (WNW) 05:11:59 435.822/435.867
KKS-1 25 Apr 05:19:23 05:22:50 22° 264° (W) 05:26:16 437.445
DOVE 4 25 Apr 05:31:48 05:35:12 20° 93° (E) 05:38:26 437.250
XW-2D 25 Apr 05:41:00 05:43:05 14° 94° (E) 05:45:11 145.860 - 145.880
CUBESAT XI-V 25 Apr 05:41:17 05:43:55 15° 267° (W) 05:46:35 437.345
XW-2B 25 Apr 05:47:30 05:50:01 17° 95° (E) 05:52:31 145.730 - 145.750
LilacSat-2 25 Apr 05:55:54 05:58:59 23° 96° (E) 06:02:05 437.200
STARS 25 Apr 05:56:24 05:59:36 19° 265° (W) 06:02:48 437.465
XW-2C 25 Apr 05:58:48 06:01:55 24° 96° (E) 06:05:02 145.795 - 145.815
CUTE-I 25 Apr 05:58:59 06:03:16 25° 96° (E) 06:07:33 437.470
SO-50 25 Apr 05:59:02 06:03:21 40° 114° (ESE) 06:07:39 436.795
M-CUBED/EXP-1 PRIME 25 Apr 05:59:21 06:02:42 20° 63° (ENE) 06:06:05 437.505
KAITUO 1B 25 Apr 06:01:06 06:03:53 20° 95° (E) 06:06:41 145.475/437.950
XW-2F 25 Apr 06:25:08 06:28:51 52° 100° (E) 06:32:34 145.980 - 146.000
NUDT-PHONESAT 25 Apr 06:41:56 06:45:39 72° 101° (ESE) 06:49:22 437.300
YUBILEINY 25 Apr 06:43:52 06:48:04 14° 295° (WNW) 06:52:18 435.215
RS-15 25 Apr 06:56:27 07:08:06 63° 111° (ESE) 07:20:09 29.354- 29.394
DOVE 4 25 Apr 07:08:56 07:12:53 29° 290° (WNW) 07:16:39 437.250
STRAND 1 25 Apr 07:09:19 07:14:26 85° 76° (ENE) 07:19:33 437.568
XW-2D 25 Apr 07:13:57 07:17:18 30° 287° (WNW) 07:20:39 145.860 - 145.880
XW-2A 25 Apr 07:19:11 07:21:59 24° 97° (E) 07:24:47 145.665 - 145.685
XW-2B 25 Apr 07:20:59 07:24:10 26° 288° (WNW) 07:27:20 145.730 - 145.750
LilacSat-2 25 Apr 07:30:20 07:33:06 19° 289° (WNW) 07:35:51 437.200
M-CUBED/EXP-1 PRIME 25 Apr 07:32:35 07:36:47 37° 258° (WSW) 07:41:07 437.505
XW-2C 25 Apr 07:33:15 07:35:55 18° 290° (WNW) 07:38:35 145.795 - 145.815
KAITUO 1B 25 Apr 07:34:52 07:37:47 21° 289° (WNW) 07:40:42 145.475/437.950
CUTE 1.7 + AOD 2 25 Apr 07:37:04 07:41:12 45° 99° (E) 07:45:18 437.475
CUTE-I 25 Apr 07:38:33 07:43:18 34° 290° (WNW) 07:48:02 437.470
AAUSAT CUBESAT 2 25 Apr 07:39:40 07:41:39 13° 93° (E) 07:43:36 437.432
SO-50 25 Apr 07:40:31 07:43:56 20° 309° (NW) 07:47:21 436.795
HO-68 25 Apr 07:50:18 07:57:27 63° 103° (ESE) 08:04:33 435.675
Tancredo 1 25 Apr 07:58:30 08:01:33 60° 135° (SE) 08:04:36 437.200
SEEDS 25 Apr 08:00:16 08:04:27 55° 100° (E) 08:08:37 437.485
ISS 25 Apr 08:07:19 08:10:30 56° 134° (SE) 08:13:41 437.550
UWE-3 25 Apr 08:15:43 08:19:29 32° 98° (E) 08:23:19 435.000/436.395/437.385
CUBEBUG 2 25 Apr 08:25:05 08:29:15 75° 101° (E) 08:33:29 437.445
PRISM 25 Apr 08:36:28 08:39:23 19° 69° (ENE) 08:42:18 437.425
UNISAT 6 25 Apr 08:40:36 08:42:32 13° 67° (ENE) 08:44:25 437.425
XW-2A 25 Apr 08:52:51 08:54:29 13° 290° (WNW) 08:56:07 145.665 - 145.685
FO-29 25 Apr 09:02:27 09:07:32 25° 69° (ENE) 09:12:10 435.910
RS-15 25 Apr 09:10:12 09:21:13 39° 313° (NW) 09:32:34 29.354- 29.394
AAUSAT CUBESAT 2 25 Apr 09:13:18 09:17:14 40° 286° (WNW) 09:21:09 437.432
ZACube-1 25 Apr 09:14:33 09:18:46 86° 281° (WNW) 09:23:04 437.345
CUTE 1.7 + AOD 2 25 Apr 09:14:38 09:16:35 13° 293° (WNW) 09:18:32 437.475
AO-73 25 Apr 09:22:24 09:26:36 78° 285° (WNW) 09:30:54 145.935
Tancredo 1 25 Apr 09:36:05 09:37:43 13° 331° (NNW) 09:39:22 437.200
SEEDS 25 Apr 09:38:35 09:39:36 11° 294° (WNW) 09:40:37 437.485
HO-68 25 Apr 09:39:17 09:44:32 22° 299° (WNW) 09:49:48 435.675
Oscar 11 25 Apr 09:40:03 09:44:20 58° 285° (WNW) 09:48:36 .
OBJECT BX 25 Apr 09:42:11 09:45:14 25° 96° (E) 09:48:18 145.990 - 145.960
ISS 25 Apr 09:45:13 09:47:13 15° 330° (NNW) 09:49:12 437.550
UWE-3 25 Apr 09:52:57 09:55:41 17° 291° (WNW) 09:58:27 435.000/436.395/437.385
TIGRISAT 25 Apr 09:53:34 09:58:00 85° 78° (ENE) 10:02:22 435.000
PRISM 25 Apr 10:10:50 10:14:25 28° 263° (W) 10:18:03 437.425
DELFI C3 25 Apr 10:11:22 10:15:23 90° 285° (WNW) 10:19:22 145.870
UNISAT 6 25 Apr 10:14:30 10:18:48 48° 260° (W) 10:23:01 437.425
AIST 2D 25 Apr 10:15:52 10:17:47 14° 70° (ENE) 10:19:42 435.315
O/OREOS (USA 219) 25 Apr 10:31:19 10:35:52 72° 290° (WNW) 10:40:29 437.305
POLYITAN 1 25 Apr 10:46:03 10:49:18 22° 70° (ENE) 10:52:34 437.675
FO-29 25 Apr 10:46:07 10:52:23 43° 260° (W) 10:57:59 435.910
ESTCUBE 1 25 Apr 10:50:57 10:53:06 13° 93° (E) 10:55:14 437.505/2401.250
LO-87 25 Apr 10:51:21 10:54:10 22° 96° (E) 10:56:58 145.935 - 145.965
QB50P2 25 Apr 10:52:09 10:55:46 28° 71° (ENE) 10:59:23 145.880/145.840
NANOSAT C BR1 25 Apr 11:15:10 11:19:11 44° 74° (ENE) 11:23:11 145.865
OBJECT BX 25 Apr 11:16:24 11:18:42 16° 290° (WNW) 11:20:59 145.990 - 145.960
PCSat 25 Apr 11:17:19 11:22:13 33° 57° (ENE) 11:27:04 145.827
BUGSAT 1 25 Apr 11:20:33 11:22:33 13° 67° (ENE) 11:24:34 437.445
RS-15 25 Apr 11:32:41 11:38:52 15° 346° (NNW) 11:45:05 29.354- 29.394
AO-85 25 Apr 11:40:07 11:43:24 21° 112° (ESE) 11:46:32 145.980
EO-79 25 Apr 11:41:46 11:45:59 76° 259° (W) 11:50:12 145.935-145.965
DUCHIFAT 1 25 Apr 11:45:34 11:49:46 85° 256° (WSW) 11:53:59 145.980
AIST 2D 25 Apr 11:47:53 11:50:46 24° 264° (W) 11:53:38 435.315
POLYITAN 1 25 Apr 12:21:28 12:24:56 25° 263° (W) 12:28:24 437.675
SPROUT 25 Apr 12:22:55 12:26:50 36° 98° (E) 12:30:43 437.525
LO-87 25 Apr 12:25:05 12:27:25 17° 290° (WNW) 12:29:44 145.935 - 145.965
ESTCUBE 1 25 Apr 12:25:44 12:30:06 47° 286° (WNW) 12:34:26 437.505/2401.250
QB50P2 25 Apr 12:28:29 12:31:31 19° 265° (W) 12:34:34 145.880/145.840
VELOX 1 25 Apr 12:45:05 12:49:31 73° 102° (ESE) 12:53:54 145.980
NANOSAT C BR1 25 Apr 12:53:27 12:55:04 12° 267° (W) 12:56:41 145.865
BUGSAT 1 25 Apr 12:53:35 12:57:32 41° 261° (W) 13:01:27 437.445
PCSat 25 Apr 13:00:52 13:05:27 28° 252° (WSW) 13:10:01 145.827
BEESAT 3 25 Apr 13:04:07 13:07:23 26° 112° (ESE) 13:10:44 437.485
Gurwin Techsat 1B 25 Apr 13:06:14 13:11:10 40° 71° (ENE) 13:16:05 435.225
50 SAT 25 Apr 13:07:27 13:10:57 86° 101° (E) 13:14:24 437.505
UKube-1 25 Apr 13:11:53 13:15:48 33° 99° (E) 13:19:41 .
Oscar 19 25 Apr 13:15:39 13:20:48 88° 78° (ENE) 13:26:00 437.125/150
AO-85 25 Apr 13:19:48 13:23:36 30° 304° (NW) 13:27:15 145.980
DX 1 25 Apr 13:41:37 13:45:58 69° 284° (WNW) 13:50:15 434.975-435.025
RS-15 25 Apr 13:51:18 13:59:00 18° 24° (NNE) 14:06:31 29.354- 29.394
SPROUT 25 Apr 13:59:52 14:02:25 16° 292° (WNW) 14:04:57 437.525
AO-7 25 Apr 14:03:01 14:10:02 32° 61° (ENE) 14:17:02 .
ITUPSAT 1 25 Apr 14:13:55 14:15:26 11° 92° (E) 14:16:58 437.325
Tancredo 1 25 Apr 14:27:33 14:29:31 15° 31° (NNE) 14:31:29 437.200
SO-50 25 Apr 14:34:35 14:37:14 15° 48° (NE) 14:39:54 436.795
BEESAT 2 25 Apr 14:36:35 14:40:30 65° 300° (WNW) 14:44:29 435.950
ISS 25 Apr 14:38:35 14:40:45 16° 31° (NNE) 14:42:54 437.550
ITAMSAT 1 25 Apr 14:38:44 14:43:39 46° 72° (ENE) 14:48:36 435.822/435.867
BEESAT 3 25 Apr 14:41:52 14:44:55 21° 307° (NW) 14:48:01 437.485
Gurwin Techsat 1B 25 Apr 14:47:14 14:51:11 21° 265° (W) 14:55:09 435.225
UKube-1 25 Apr 14:48:40 14:51:32 17° 292° (WNW) 14:54:22 .
YUBILEINY 25 Apr 14:56:09 15:04:18 41° 76° (ENE) 15:12:25 435.215
BEESAT 25 Apr 15:09:11 15:13:49 51° 100° (E) 15:18:27 436.000
MOZHAYETS 4 25 Apr 15:14:48 15:18:41 27° 96° (E) 15:22:35
